GW1987 Weather Reports


Display with metric or nautical units.
time (UTC)temp
F
wind
direction
speed
MPH
gust
MPH
rain 1hr
in
rain 24hr
in
rain mn
in
humidity
%
barometer
mb
20260904224019 72 360 17.0 23.0 0.00 0.00 0.00 25 924.6
20260904223519 71 360 15.0 23.0 0.00 0.00 0.00 25 924.7
20260904223057 72 360 18.0 25.0 0.00 0.00 0.00 25 924.4
20260904222521 71 360 18.0 25.0 0.00 0.00 0.00 26 924.3
20260904222016 71 360 13.0 23.0 0.00 0.00 0.00 27 924.5
20260904221555 71 360 16.0 25.0 0.00 0.00 0.00 28 924.5
20260904221018 71 360 17.0 25.0 0.00 0.00 0.00 28 924.4
20260904220521 71 360 13.0 22.0 0.00 0.00 0.00 27 924.4
20260904220104 71 360 17.0 31.0 0.00 0.00 0.00 28 924.4
20260904215520 71 360 20.0 31.0 0.00 0.00 0.00 28 924.1
20260904215024 70 360 11.0 23.0 0.00 0.00 0.00 29 924.0
20260904214600 71 360 17.0 21.0 0.00 0.00 0.00 29 924.0
20260904214017 71 360 17.0 24.0 0.00 0.00 0.00 29 924.1
20260904213518 71 360 17.0 24.0 0.00 0.00 0.00 29 923.9
20260904213051 71 360 15.0 26.0 0.00 0.00 0.00 29 924.0
20260904212516 71 360 18.0 26.0 0.00 0.00 0.00 28 923.9
20260904212020 71 360 10.0 20.0 0.00 0.00 0.00 28 923.9
20260904211603 71 360 16.0 26.0 0.00 0.00 0.00 29 923.8
20260904211019 71 360 21.0 26.0 0.00 0.00 0.00 28 923.8
20260904210520 70 360 16.0 25.0 0.00 0.00 0.00 29 923.9
20260904210100 70 360 15.0 25.0 0.00 0.00 0.00 28 923.6
20260904205519 70 360 18.0 26.0 0.00 0.00 0.00 29 923.8
20260904205018 70 360 17.0 26.0 0.00 0.00 0.00 28 923.7
20260904204552 71 360 15.0 26.0 0.00 0.00 0.00 28 923.8
20260904204018 70 360 16.0 25.0 0.00 0.00 0.00 28 923.7
20260904203521 70 360 17.0 25.0 0.00 0.00 0.00 27 923.6
20260904203057 70 360 18.0 26.0 0.00 0.00 0.00 27 923.5
20260904202519 70 360 17.0 26.0 0.00 0.00 0.00 28 923.4
20260904202022 70 360 17.0 28.0 0.00 0.00 0.00 27 923.3
20260904201550 70 360 17.0 28.0 0.00 0.00 0.00 29 923.4
20260904201019 70 360 18.0 28.0 0.00 0.00 0.00 28 923.0
20260904200517 70 360 16.0 28.0 0.00 0.00 0.00 29 923.3
20260904200112 70 360 15.0 27.0 0.00 0.00 0.00 29 923.1
20260904195518 70 360 20.0 27.0 0.00 0.00 0.00 30 923.1
20260904195016 70 360 19.0 28.0 0.00 0.00 0.00 29 923.0
20260904194551 69 360 24.0 30.0 0.00 0.00 0.00 30 922.8
20260904194018 70 360 23.0 30.0 0.00 0.00 0.00 29 922.4
20260904193517 69 360 17.0 31.0 0.00 0.00 0.00 30 923.1
20260904193050 70 360 22.0 31.0 0.00 0.00 0.00 30 922.8
20260904192520 69 360 21.0 30.0 0.00 0.00 0.00 30 922.9
20260904192017 69 360 23.0 30.0 0.00 0.00 0.00 30 922.8
20260904191600 70 360 21.0 30.0 0.00 0.00 0.00 29 922.8
20260904191019 70 360 15.0 28.0 0.00 0.00 0.00 30 923.0
20260904190517 69 360 19.0 28.0 0.00 0.00 0.00 29 922.8
20260904190105 68 360 17.0 25.0 0.00 0.00 0.00 29 923.0
20260904185516 68 360 17.0 22.0 0.00 0.00 0.00 29 923.0
20260904185021 68 360 16.0 23.0 0.00 0.00 0.00 29 922.9
20260904184552 68 360 17.0 23.0 0.00 0.00 0.00 29 922.8
20260904184021 67 360 16.0 23.0 0.00 0.00 0.00 28 922.9
20260904183521 67 360 15.0 19.0 0.00 0.00 0.00 28 923.0
20260904183050 67 360 14.0 20.0 0.00 0.00 0.00 29 922.8
20260904182525 66 360 16.0 21.0 0.00 0.00 0.00 29 922.5
20260904182021 66 360 14.0 20.0 0.00 0.00 0.00 30 922.5
20260904181558 66 360 13.0 20.0 0.00 0.00 0.00 29 922.7
20260904181017 65 360 14.0 21.0 0.00 0.00 0.00 30 922.4
20260904180522 65 360 13.0 21.0 0.00 0.00 0.00 30 922.3
20260904180107 64 360 13.0 20.0 0.00 0.00 0.00 31 922.2
20260904175523 64 360 14.0 20.0 0.00 0.00 0.00 31 922.2
20260904175020 64 360 13.0 17.0 0.00 0.00 0.00 32 922.2
20260904174600 64 360 13.0 20.0 0.00 0.00 0.00 31 922.1
20260904174021 64 360 13.0 20.0 0.00 0.00 0.00 31 921.8
20260904173522 63 360 14.0 20.0 0.00 0.00 0.00 32 921.9
20260904173106 63 360 15.0 20.0 0.00 0.00 0.00 32 921.8
20260904172517 63 360 13.0 19.0 0.00 0.00 0.00 33 921.7
20260904172020 62 360 14.0 19.0 0.00 0.00 0.00 34 921.8
20260904171549 63 360 15.0 20.0 0.00 0.00 0.00 33 921.9
20260904171020 61 360 14.0 20.0 0.00 0.00 0.00 35 921.8
20260904170517 61 360 15.0 20.0 0.00 0.00 0.00 35 921.7
20260904170051 61 360 13.0 18.0 0.00 0.00 0.00 36 921.9
20260904165521 60 360 14.0 20.0 0.00 0.00 0.00 37 921.7
20260904165020 60 360 14.0 20.0 0.00 0.00 0.00 37 921.8
20260904164603 60 360 17.0 20.0 0.00 0.00 0.00 36 921.8
20260904164020 60 360 16.0 21.0 0.00 0.00 0.00 38 921.6
20260904163517 59 360 16.0 21.0 0.00 0.00 0.00 38 921.4
20260904163058 59 360 17.0 21.0 0.00 0.00 0.00 38 921.5
20260904162518 59 360 15.0 21.0 0.00 0.00 0.00 39 921.7
20260904162018 58 360 16.0 21.0 0.00 0.00 0.00 40 921.5
20260904161600 58 360 17.0 21.0 0.00 0.00 0.00 40 921.3
20260904161021 58 360 17.0 20.0 0.00 0.00 0.00 40 921.3
20260904160522 58 360 16.0 21.0 0.00 0.00 0.00 41 921.3
20260904160100 57 360 17.0 22.0 0.00 0.00 0.00 42 921.1
20260904155520 57 360 17.0 22.0 0.00 0.00 0.00 42 921.1
20260904155020 57 360 17.0 22.0 0.00 0.00 0.00 42 920.9
20260904154611 57 360 17.0 22.0 0.00 0.00 0.00 43 920.7
20260904154019 57 360 17.0 21.0 0.00 0.00 0.00 45 920.8
20260904153520 56 360 17.0 21.0 0.00 0.00 0.00 46 920.7
20260904153059 55 360 13.0 19.0 0.00 0.00 0.00 47 920.9
20260904152516 55 360 14.0 19.0 0.00 0.00 0.00 48 921.0
20260904152022 55 360 13.0 17.0 0.00 0.00 0.00 49 920.9
20260904151602 54 360 13.0 18.0 0.00 0.00 0.00 49 920.7
20260904151018 54 360 13.0 19.0 0.00 0.00 0.00 50 920.6
20260904150521 53 360 13.0 18.0 0.00 0.00 0.00 51 920.5
20260904150059 53 360 12.0 16.0 0.00 0.00 0.00 52 920.4
20260904145520 52 360 11.0 16.0 0.00 0.00 0.00 53 920.6
20260904145020 52 360 10.0 15.0 0.00 0.00 0.00 53 920.6
20260904144558 51 360 12.0 15.0 0.00 0.00 0.00 54 920.4
20260904144017 51 360 11.0 14.0 0.00 0.00 0.00 55 920.2
20260904143517 51 360 10.0 13.0 0.00 0.00 0.00 56 920.2
20260904143107 50 360 9.0 13.0 0.00 0.00 0.00 57 920.2
20260904142517 49 360 8.0 11.0 0.00 0.00 0.00 58 920.1
20260904142020 49 360 7.0 10.0 0.00 0.00 0.00 59 920.1
20260904141603 48 360 6.0 10.0 0.00 0.00 0.00 59 920.0
20260904141021 48 360 7.0 10.0 0.00 0.00 0.00 60 919.8
20260904140522 47 360 7.0 10.0 0.00 0.00 0.00 61 919.8
20260904140109 47 360 6.0 10.0 0.00 0.00 0.00 61 919.7
20260904135520 46 360 6.0 10.0 0.00 0.00 0.00 61 920.0
20260904135021 46 360 7.0 11.0 0.00 0.00 0.00 62 920.0
20260904134614 46 360 7.0 11.0 0.00 0.00 0.00 62 919.7
20260904134017 46 360 6.0 10.0 0.00 0.00 0.00 62 919.7
20260904133516 45 360 5.0 9.0 0.00 0.00 0.00 63 919.7
20260904133057 45 360 4.0 10.0 0.00 0.00 0.00 63 919.5
20260904132521 45 360 6.0 13.0 0.00 0.00 0.00 63 919.5
20260904132021 45 360 9.0 13.0 0.00 0.00 0.00 63 919.5
20260904131603 44 360 8.0 12.0 0.00 0.00 0.00 64 919.4
20260904131020 45 360 7.0 11.0 0.00 0.00 0.00 64 919.6
20260904130520 45 360 7.0 12.0 0.00 0.00 0.00 63 919.6
20260904130059 45 360 8.0 13.0 0.00 0.00 0.00 63 919.5
20260904125522 45 360 10.0 13.0 0.00 0.00 0.00 63 919.5
20260904125019 45 360 9.0 13.0 0.00 0.00 0.00 64 919.6
20260904124608 45 360 8.0 11.0 0.00 0.00 0.00 64 919.6
20260904124017 45 360 6.0 11.0 0.00 0.00 0.00 64 919.6
20260904123517 45 360 8.0 13.0 0.00 0.00 0.00 64 919.4
20260904123111 45 360 10.0 13.0 0.00 0.00 0.00 65 919.5
20260904122521 45 360 7.0 11.0 0.00 0.00 0.00 65 919.5
20260904122021 45 360 7.0 10.0 0.00 0.00 0.00 65 919.6
20260904121559 45 360 8.0 10.0 0.00 0.00 0.00 65 919.5
20260904121021 45 360 6.0 10.0 0.00 0.00 0.00 65 919.3
20260904120518 45 360 6.0 10.0 0.00 0.00 0.00 65 919.5
20260904120109 45 360 7.0 9.0 0.00 0.00 0.00 64 919.5
20260904115525 46 360 5.0 8.0 0.00 0.00 0.00 64 919.4
20260904115021 46 360 4.0 8.0 0.00 0.00 0.00 64 919.3
20260904114605 46 360 4.0 8.0 0.00 0.00 0.00 64 919.4
20260904114024 46 360 5.0 8.0 0.00 0.00 0.00 65 919.4
20260904113521 46 360 4.0 6.0 0.00 0.00 0.00 65 919.5
20260904113100 46 360 4.0 6.0 0.00 0.00 0.00 65 919.4
20260904112522 46 360 4.0 6.0 0.00 0.00 0.00 65 919.5
20260904112020 45 360 5.0 6.0 0.00 0.00 0.00 66 919.5
20260904111609 45 360 4.0 9.0 0.00 0.00 0.00 66 919.5
20260904111017 45 360 7.0 9.0 0.00 0.00 0.00 66 919.5
20260904110519 45 360 5.0 8.0 0.00 0.00 0.00 66 919.5
20260904110108 45 360 4.0 8.0 0.00 0.00 0.00 66 919.5
20260904105527 45 360 5.0 8.0 0.00 0.00 0.00 66 919.6
20260904105021 45 360 4.0 9.0 0.00 0.00 0.00 66 919.5
20260904104550 45 360 6.0 9.0 0.00 0.00 0.00 66 919.6
20260904104019 45 360 6.0 9.0 0.00 0.00 0.00 66 919.6
20260904103522 45 360 5.0 9.0 0.00 0.00 0.00 66 919.7
20260904103104 45 360 6.0 9.0 0.00 0.00 0.00 66 919.8
20260904102521 45 360 6.0 9.0 0.00 0.00 0.00 66 920.0
20260904102018 46 360 5.0 6.0 0.00 0.00 0.00 65 920.0
20260904101602 46 360 3.0 6.0 0.00 0.00 0.00 65 919.9
20260904101024 46 360 4.0 6.0 0.00 0.00 0.00 65 919.7
20260904100520 46 360 3.0 5.0 0.00 0.00 0.00 64 919.8
20260904100109 47 360 3.0 5.0 0.00 0.00 0.00 64 919.9
20260904095521 47 360 3.0 4.0 0.00 0.00 0.00 64 920.0
20260904095018 47 360 3.0 4.0 0.00 0.00 0.00 64 920.2
20260904094612 47 360 2.0 3.0 0.00 0.00 0.00 65 920.2
20260904093716 47 360 2.0 4.0 0.00 0.00 0.00 64 920.3
20260904093035 47 360 1.0 5.0 0.00 0.00 0.00 65 920.3
20260904092521 46 360 1.0 3.0 0.00 0.00 0.00 64 920.4
20260904092018 46 360 0.0 5.0 0.00 0.00 0.00 64 920.4
20260904091538 46 360 4.0 5.0 0.00 0.00 0.00 65 920.5
20260904091018 46 360 1.0 4.0 0.00 0.00 0.00 64 920.5
20260904090517 46 360 2.0 4.0 0.00 0.00 0.00 64 920.5
20260904090045 46 360 0.0 3.0 0.00 0.00 0.00 64 920.6
20260904085519 46 360 0.0 4.0 0.00 0.00 0.00 64 920.5
20260904085020 46 360 2.0 5.0 0.00 0.00 0.00 63 920.5
20260904084536 47 360 1.0 6.0 0.00 0.00 0.00 63 920.5
20260904084019 47 360 4.0 8.0 0.00 0.00 0.00 64 920.3
20260904083517 47 360 5.0 8.0 0.00 0.00 0.00 63 920.4
20260904083105 47 360 4.0 8.0 0.00 0.00 0.00 63 920.5
20260904082518 47 360 5.0 8.0 0.00 0.00 0.00 63 920.4
20260904082018 47 360 5.0 8.0 0.00 0.00 0.00 63 920.5
20260904081535 47 360 6.0 9.0 0.00 0.00 0.00 62 920.5
20260904081019 47 360 6.0 8.0 0.00 0.00 0.00 61 920.5
20260904080518 48 360 4.0 6.0 0.00 0.00 0.00 60 920.3
20260904080041 48 360 5.0 6.0 0.00 0.00 0.00 60 920.5
20260904075518 49 360 4.0 5.0 0.00 0.00 0.00 60 920.3
20260904075017 49 360 4.0 5.0 0.00 0.00 0.00 59 920.3
20260904074537 49 360 3.0 4.0 0.00 0.00 0.00 58 920.3
20260904074017 50 360 3.0 4.0 0.00 0.00 0.00 59 920.5
20260904073518 49 360 3.0 5.0 0.00 0.00 0.00 59 920.6
20260904073037 49 360 3.0 5.0 0.00 0.00 0.00 59 920.6
20260904072518 49 360 2.0 4.0 0.00 0.00 0.00 59 920.7
20260904072023 50 360 1.0 4.0 0.00 0.00 0.00 58 920.7
20260904071545 50 360 0.0 0.0 0.00 0.00 0.00 61 920.8
20260904071017 49 360 0.0 0.0 0.00 0.00 0.00 62 920.8
20260904070519 48 360 0.0 0.0 0.00 0.00 0.00 63 920.8
20260904070106 48 360 0.0 0.0 0.00 0.00 0.00 62 920.9
20260904065518 49 360 0.0 0.0 0.00 0.00 0.00 62 920.9
20260904065019 49 360 0.0 1.0 0.00 0.00 0.00 61 921.1
20260904064539 49 360 0.0 1.0 0.00 0.00 0.00 61 921.1
20260904064017 50 360 0.0 2.0 0.00 0.00 0.00 61 920.9
20260904063520 50 360 0.0 2.0 0.00 0.00 0.00 60 920.8
20260904063036 50 360 1.0 2.0 0.00 0.00 0.00 60 920.9
20260904062516 50 360 1.0 2.0 0.00 0.00 0.00 61 921.0
20260904062016 49 360 1.0 3.0 0.00 0.00 0.00 62 921.1
20260904061536 49 360 1.0 4.0 0.00 0.00 0.00 62 921.3
20260904061017 48 360 2.0 5.0 0.00 0.00 0.00 62 921.1
20260904060521 49 360 2.0 4.0 0.00 0.00 0.00 60 921.2
20260904060041 49 360 1.0 3.0 0.00 0.00 0.00 58 921.0
20260904055516 50 360 0.0 2.0 0.00 0.01 0.00 57 921.1
20260904055018 51 360 0.0 4.0 0.00 0.01 0.00 55 920.9
20260904054548 52 360 2.0 4.0 0.00 0.01 0.00 55 920.8
20260904054019 52 360 3.0 4.0 0.00 0.01 0.00 55 920.8
20260904053516 52 360 3.0 4.0 0.00 0.01 0.00 54 920.6
20260904053056 53 360 0.0 5.0 0.00 0.01 0.00 54 920.9
20260904052518 53 360 3.0 5.0 0.00 0.01 0.00 54 920.9
20260904052017 53 360 4.0 5.0 0.00 0.01 0.00 54 921.1
20260904051546 53 360 3.0 4.0 0.00 0.01 0.00 53 921.1
20260904051017 53 360 2.0 5.0 0.00 0.01 0.00 53 921.1
20260904050519 53 360 4.0 5.0 0.00 0.01 0.00 53 921.3
20260904050043 53 360 3.0 4.0 0.00 0.01 0.00 53 921.4
20260904045517 53 360 2.0 4.0 0.00 0.03 0.00 53 921.4
20260904045016 53 360 2.0 3.0 0.00 0.03 0.00 53 921.5
20260904044549 53 360 1.0 3.0 0.00 0.03 0.00 53 921.5
20260904044017 53 360 1.0 4.0 0.00 0.03 0.00 52 921.5
20260904043516 53 360 3.0 4.0 0.00 0.03 0.00 52 921.2
20260904043056 53 360 2.0 4.0 0.00 0.03 0.00 51 921.4
20260904042519 54 360 2.0 4.0 0.00 0.03 0.00 51 921.4
20260904042018 54 360 3.0 4.0 0.00 0.03 0.00 51 921.4
20260904041554 54 360 3.0 5.0 0.00 0.03 0.00 50 921.3
20260904041018 54 360 4.0 5.0 0.00 0.03 0.00 50 921.3
20260904040518 54 360 2.0 5.0 0.00 0.03 0.00 50 921.3
20260904040104 55 360 2.0 6.0 0.00 0.03 0.00 50 921.4
20260904035518 54 360 4.0 6.0 0.00 0.04 0.00 50 921.3
20260904035017 54 360 3.0 5.0 0.00 0.04 0.00 50 921.3
20260904034550 54 360 2.0 6.0 0.00 0.04 0.00 50 921.1
20260904034020 54 360 5.0 8.0 0.00 0.04 0.00 50 921.1
20260904033518 55 360 5.0 8.0 0.00 0.04 0.00 49 920.9
20260904033046 55 360 5.0 8.0 0.00 0.04 0.00 48 921.0
20260904032517 55 360 5.0 8.0 0.00 0.04 0.00 48 920.9
20260904032016 56 360 5.0 6.0 0.00 0.04 0.00 46 920.9
20260904031556 57 360 4.0 5.0 0.00 0.04 0.00 45 920.8
20260904031019 58 360 3.0 5.0 0.00 0.04 0.00 44 920.8
20260904030516 58 360 4.0 5.0 0.00 0.04 0.00 44 920.8
20260904030053 58 360 3.0 4.0 0.00 0.04 0.00 43 920.9
20260904025518 59 360 3.0 4.0 0.00 0.04 0.00 42 921.0
20260904025016 59 360 3.0 4.0 0.00 0.04 0.00 42 921.1
20260904024549 59 360 3.0 4.0 0.00 0.04 0.00 41 921.1
20260904024018 59 360 2.0 3.0 0.00 0.04 0.00 41 920.9
20260904023518 59 360 2.0 3.0 0.00 0.04 0.00 40 921.1
20260904023046 60 360 1.0 3.0 0.00 0.04 0.00 40 921.1
20260904022518 60 360 1.0 3.0 0.00 0.04 0.00 40 920.8
20260904022019 60 360 1.0 4.0 0.00 0.04 0.00 40 920.9
20260904021550 60 360 2.0 6.0 0.00 0.04 0.00 40 921.1
20260904021016 60 360 3.0 8.0 0.00 0.04 0.00 39 920.8
20260904020518 61 360 4.0 8.0 0.00 0.04 0.00 38 920.8
20260904020050 62 360 4.0 9.0 0.00 0.04 0.00 37 920.6
20260904015520 62 360 5.0 9.0 0.00 0.04 0.00 37 920.8
20260904015016 63 360 6.0 9.0 0.00 0.04 0.00 36 920.9
20260904014545 63 360 6.0 13.0 0.00 0.04 0.00 35 920.9
20260904014017 64 360 8.0 14.0 0.00 0.04 0.00 34 921.0
20260904013517 64 360 9.0 16.0 0.00 0.04 0.00 33 920.9
20260904013050 65 360 9.0 17.0 0.00 0.04 0.00 33 920.8
20260904012517 65 360 13.0 18.0 0.00 0.04 0.00 32 920.8
20260904012022 66 360 12.0 17.0 0.00 0.04 0.00 32 920.8
20260904011550 65 360 11.0 20.0 0.00 0.04 0.00 32 920.6
20260904011019 65 360 13.0 20.0 0.00 0.04 0.00 32 920.6
20260904010517 65 360 13.0 19.0 0.00 0.04 0.00 32 920.4
20260904010046 66 360 11.0 18.0 0.00 0.04 0.00 31 920.3
20260904005518 66 360 13.0 18.0 0.00 0.04 0.00 31 920.4
20260904005016 66 360 12.0 17.0 0.00 0.04 0.00 30 920.5
20260904004551 67 360 13.0 17.0 0.00 0.04 0.00 29 920.5
20260904004018 67 360 11.0 18.0 0.00 0.04 0.00 29 920.6
20260904003517 68 360 12.0 19.0 0.00 0.04 0.00 28 920.9
20260904003049 69 360 13.0 20.0 0.00 0.04 0.00 27 920.7
20260904002517 69 360 13.0 18.0 0.00 0.04 0.00 27 920.8
20260904002021 69 360 12.0 21.0 0.00 0.04 0.00 27 920.8
20260904001550 70 360 14.0 23.0 0.00 0.04 0.00 25 920.9
20260904001018 71 360 17.0 23.0 0.00 0.04 0.00 24 920.8
20260904000522 71 360 13.0 22.0 0.00 0.04 0.00 24 920.7
20260904000107 71 360 15.0 22.0 0.00 0.04 0.00 25 920.7
20260903235523 71 360 13.0 22.0 0.00 0.04 0.00 25 920.9
20260903235022 70 360 13.0 22.0 0.00 0.04 0.00 25 920.6
20260903234552 70 360 10.0 22.0 0.00 0.04 0.00 25 920.5
20260903234016 70 360 13.0 22.0 0.00 0.04 0.00 24 920.5
20260903233516 71 360 13.0 19.0 0.00 0.04 0.00 23 920.3
20260903233050 71 360 12.0 22.0 0.00 0.04 0.00 23 920.6
20260903232519 71 360 16.0 22.0 0.00 0.04 0.00 23 920.5
20260903232019 71 360 14.0 21.0 0.00 0.04 0.00 23 920.4
20260903231545 72 360 13.0 21.0 0.00 0.04 0.00 23 920.3
20260903231018 72 360 13.0 20.0 0.00 0.04 0.00 23 920.5
20260903230517 71 360 9.0 19.0 0.00 0.04 0.00 24 920.7
20260903230055 71 360 11.0 18.0 0.00 0.04 0.00 23 920.6
20260903225519 71 360 12.0 21.0 0.00 0.06 0.00 25 920.6
20260903225015 71 360 13.0 21.0 0.00 0.06 0.00 24 920.4
20260903224550 71 360 13.0 24.0 0.00 0.06 0.00 25 920.6